STARLINK-31824, 59804

Orbit data source: Space-Track

STARLINK-31824, 59804 is a payload satellite owned by SpaceX/Seattle (US) in LEO that was launched on Sat, 18 May 2024 UTC via an FALCON 9 launch vehicle from the Air Force Eastern Test Range (AFETR). Payload-class satellites include a variety of spacecraft equipped with specific instruments for various scientific and technological missions. These include communications satellites like Starlink; space stations such as the ISS; scientific satellites like the Hubble; Earth observation satellites from companies like Planet Labs, Umbra, and HawkEye 360; GPS; miniature CubeSats for education and research; and military/defense satellites.

Loading next visibility...
Identifier
59804, 2024-093Y
Orbit
LEO
Country
Flag of USUS
Related business
Manufacturer
SpaceX/Seattle
Mission
Operational spacecraft
Bus & Motor
STARLINK V2M, Unknown motor
Mass
730 kg wet, ~700 kg dry
Launch date (UTC)
2024-05-18 (1 year ago)
Launch vehicle
FALCON 9
Launch site
Air Force Eastern Test Range (AFETR)
Object type
Payload
Rocket body
Debris
Shape & HBR
Unknown shape, 17.7 m
Radar Cross Section
Large (>1 m²)

Expand to show TLE details & history
Last TLE update: 7 hours ago

TLE from 7 hours ago
0 STARLINK-31824
1 59804U 24093Y   25292.26555826 -.00002403  00000-0 -77863-4 0  9999
2 59804  42.9947 287.8216 0001620 125.2946 234.8058 15.27564383 81064
Epoch: 2025-10-19T06:22Z
TLE epoch observation values (Epoch: 2025-10-19T06:22:24.233Z)
Latitude
0.00003°
Longitude
164.23596°
Altitude
483.511 km
Speed
7.625 km/s
True Right ascension
19h 11m 17s
True Declination
0° 00' 00"
Sunlit
Object was in daylight at epoch
Visualization orbit readout
Latitude
Unknown
Longitude
Unknown
Altitude
Unknown
Speed
Unknown
Apparent Right ascension
Unknown
Apparent Declination
Unknown
Sunlit
N/A
Visualization observer readout
Local Sidereal Time
08:23:10
Azimuth
Unknown
Elevation
Unknown
Doppler factor
Unknown
Orbital elements
Apogee altitude
486.154 km
Perigee altitude
483.93 km
Semi-major axis
6,863.179 km
Eccentricity
0.00016
Inclination
42.9947°
RAAN
287.8216°
Arg. of periapsis
125.2946°
True anomaly
234.79063°
Mean anomaly
234.8058°
Eccentric anomaly
234.79822°
Mean motion
3.81729 °/min
Orbital period
94.31 mins
BSTAR
-0.000077863
Loading maneuver chart data...
Computing Atmospheric mass density...
Loading historical data...
Loading historical data...
Loading historical data...
Loading historical data...
Loading historical data...
Loading historical data...
Loading historical data...

Documentation

Showing up to 5 results
|